Location: Bryzozowice
(50.3667°N, 18.9667°E)
Time: 05:21:07
(UTC+00:00)

Cosmos 1356 Rocket - Pass Details

Date: 24 January 2020
Orbit: 543 x 598 km, 81.2° (Epoch: 26 February)

Event Time Altitude Azimuth Distance (km) Brightness Sun altitude
Rises 17:48:14 0° 343° (NNW) 2,732 7.1 -22.9°
Reaches altitude 10° 17:50:27 10° 338° (NNW) 1,839 6.2 -23.2°
Maximum altitude 17:54:22 50° 263° (W) 714 4.2 -23.9°
Drops below altitude 10° 17:58:18 10° 188° (S) 1,850 6.1 -24.5°
Sets 18:00:32 0° 183° (S) 2,750 6.9 -24.9°
